Погода в Поддубье

Россия / Санкт-Петербург и Ленинградская область     59°01′54″N   30°51′47″E
темп.,
°C
ветер,
м/с
пор.,
м/с
влажн.,
%
обл.,
%
осадки,
мм/ч
давл.,
гПа
погр.,
м
28 июня, вт
вт2800:00+20всв127081 0.0 102211
03:00+18всв12745 0.0 102212
06:00+19всв257763 0.0 1022127
09:00+24в346151 0.0 1022519
12:00+28в33455 0.0 10221171
15:00+29всв334110 0.0 10221988
18:00+28всв43435 0.0 10211443
21:00+22всв410614 0.0 1021324
29 июня, ср
ср2900:00+18вюв396718 0.0 1022223
03:00+15в386513 0.0 1022161
06:00+16вюв39680 0.0 1022284
09:00+21юв46480 0.0 1022601
12:00+25юв44370 0.0 10221235
15:00+27вюв33320 0.0 10211761
18:00+26в32320 0.0 10201794
21:00+19вюв24570 0.0 102074
30 июня, чт
чт3000:00+15юв22560 0.0 102125
03:00+14вюв22581 0.0 102210
06:00+15вюв12640 0.0 102245
09:00+22в23445 0.0 1022403
12:00+26в23295 0.0 10221560
15:00+28в23250 0.0 10211877
18:00+27в12280 0.0 10201793
21:00+21юв115263 0.0 102011
1 июля, пт
пт100:00+17всв1157100 0.0 102211
03:00+16в1158100 0.0 102111
06:00+17юв1164100 0.0 102211
09:00+22юв1147100 0.0 1022247
12:00+28ююв123499 0.0 10211278
15:00+29ююз223526 0.0 10202141
18:00+28ююз3342100 0.0 10191883
21:00+23ююз226894 0.0 101943
2 июля, сб
сб200:00+20зюз117252 0.0 101911
03:00+19ююз1176100 0.1 101914
06:00+19ююв2279100 0.1 101942
09:00+25з1352100 0.1 1019377
12:00+28ююз334082 0.0 10181441
15:00+29ююз323597 0.0 10181823
18:00+28ю223998 0.0 10171375
21:00+22ю2267100 0.0 101631